"Period start","avg(HW err(1)/warn(2) (#))","avg(Visibility (m))","avg(Weather code (#))","avg(Precip intensity (mm/h))","min(HW err(1)/warn(2) (#))","max(HW err(1)/warn(2) (#))","std(HW err(1)/warn(2) (#))","med(HW err(1)/warn(2) (#))","min(Visibility (m))","max(Visibility (m))","std(Visibility (m))","med(Visibility (m))","min(Weather code (#))","max(Weather code (#))","std(Weather code (#))","med(Weather code (#))","min(Precip intensity (mm/h))","max(Precip intensity (mm/h))","std(Precip intensity (mm/h))","med(Precip intensity (mm/h))"
2016-08-02 00:00:00,0,27184,0,0.00,0,0,0,0,23029,33651,3048,26620,0,0,0,0,0.00,0.00,0.00,0.00
2016-08-02 00:10:00,0,21860,0,0.00,0,0,0,0,19393,24630,1559,21444,0,0,0,0,0.00,0.00,0.00,0.00
2016-08-02 00:20:00,0,18735,0,0.00,0,0,0,0,16763,21327,1486,18582,0,0,0,0,0.00,0.00,0.00,0.00
2016-08-02 00:30:00,0,21483,0,0.00,0,0,0,0,20015,24511,1381,20946,0,0,0,0,0.00,0.00,0.00,0.00
2016-08-02 00:40:00,0,19183,0,0.00,0,0,0,0,17262,21044,1094,19458,0,0,0,0,0.00,0.00,0.00,0.00
2016-08-02 00:50:00,0,17081,0,0.00,0,0,0,0,11972,22796,3641,16497,0,0,0,0,0.00,0.00,0.00,0.00
2016-08-02 01:00:00,0,10395,0,0.00,0,0,0,0,9229,12019,990,10239,0,0,0,0,0.00,0.00,0.00,0.00
2016-08-02 01:10:00,0,10577,0,0.00,0,0,0,0,9674,11692,543,10616,0,0,0,0,0.00,0.00,0.00,0.00
2016-08-02 01:20:00,0,11415,0,0.00,0,0,0,0,10053,13454,959,11476,0,0,0,0,0.00,0.00,0.00,0.00
2016-08-02 01:30:00,0,14572,0,0.00,0,0,0,0,11891,17136,1640,14926,0,0,0,0,0.00,0.00,0.00,0.00
2016-08-02 01:40:00,0,14980,0,0.00,0,0,0,0,13670,16504,929,15017,0,0,0,0,0.00,0.00,0.00,0.00
2016-08-02 01:50:00,0,17612,0,0.00,0,0,0,0,15817,20946,1569,17484,0,0,0,0,0.00,0.00,0.00,0.00
2016-08-02 02:00:00,0,18194,0,0.00,0,0,0,0,15117,22283,2228,18262,0,0,0,0,0.00,0.00,0.00,0.00
2016-08-02 02:10:00,0,17974,0,0.00,0,0,0,0,16406,21640,1537,17508,0,0,0,0,0.00,0.00,0.00,0.00
2016-08-02 02:20:00,0,16037,0,0.00,0,0,0,0,14853,17994,877,15967,0,0,0,0,0.00,0.00,0.00,0.00
2016-08-02 02:30:00,0,15844,0,0.00,0,0,0,0,14198,18668,1238,15484,0,0,0,0,0.00,0.00,0.00,0.00
2016-08-02 02:40:00,0,15722,0,0.00,0,0,0,0,14697,16231,473,15948,0,0,0,0,0.00,0.00,0.00,0.00
2016-08-02 02:50:00,0,15509,12,0.01,0,0,0,0,13506,18268,1209,15342,0,61,24,0,0.00,0.05,0.02,0.00
2016-08-02 03:00:00,0,14225,51,0.07,0,0,0,0,13378,16651,903,13972,51,51,0,51,0.00,0.20,0.06,0.05
2016-08-02 03:10:00,0,13124,38,0.04,0,0,0,0,12090,14362,649,13178,0,61,25,51,0.00,0.20,0.06,0.03
2016-08-02 03:20:00,0,12665,0,0.00,0,0,0,0,11795,13829,569,12717,0,0,0,0,0.00,0.00,0.00,0.00
2016-08-02 03:30:00,0,12976,0,0.00,0,0,0,0,12009,13784,592,13096,0,0,0,0,0.00,0.00,0.00,0.00
2016-08-02 03:40:00,0,12418,0,0.00,0,0,0,0,11564,13229,549,12426,0,0,0,0,0.00,0.00,0.00,0.00
2016-08-02 03:50:00,0,11718,0,0.00,0,0,0,0,11202,12986,513,11570,0,0,0,0,0.00,0.00,0.00,0.00
2016-08-02 04:00:00,0,13405,38,0.16,0,0,0,0,11426,15182,1269,13478,0,61,25,51,0.00,0.50,0.18,0.10
2016-08-02 04:10:00,0,13537,51,0.15,0,0,0,0,11678,15440,989,13375,51,51,0,51,0.05,0.30,0.07,0.15
2016-08-02 04:20:00,0,12422,24,0.03,0,0,0,0,11315,13641,712,12188,0,61,30,0,0.00,0.15,0.05,0.00
2016-08-02 04:30:00,0,13630,0,0.00,0,0,0,0,12205,14982,933,13726,0,0,0,0,0.00,0.00,0.00,0.00
2016-08-02 04:40:00,0,12695,0,0.00,0,0,0,0,11179,13863,829,12786,0,0,0,0,0.00,0.00,0.00,0.00
2016-08-02 04:50:00,0,8287,3,0.00,0,0,0,0,5688,9746,1289,8580,0,10,5,0,0.00,0.00,0.00,0.00
2016-08-02 05:00:00,0,6174,54,1.66,0,0,0,0,5422,7179,530,6039,52,61,4,52,0.15,2.80,0.80,1.62
2016-08-02 05:10:00,0,6144,52,1.18,0,0,0,0,5276,6939,498,6222,52,52,0,52,0.60,2.10,0.40,1.18
2016-08-02 05:20:00,0,5397,54,5.43,0,0,0,0,4291,6430,687,5704,52,61,4,52,2.85,7.80,1.31,5.10
2016-08-02 05:30:00,0,4997,62,11.00,0,0,0,0,4319,5703,374,4988,61,62,0,62,9.05,12.95,1.47,11.12
2016-08-02 05:40:00,0,4468,58,11.07,0,0,0,0,4047,5019,315,4484,53,62,4,58,5.65,19.75,4.92,10.00
2016-08-02 05:50:00,0,4966,58,8.28,0,0,0,0,3500,8669,1764,3957,52,62,4,61,1.30,15.70,4.57,8.52
2016-08-02 06:00:00,0,5650,52,3.17,0,0,0,0,4193,9346,1484,5111,52,53,0,52,1.05,5.40,1.27,3.35
2016-08-02 06:10:00,0,7329,52,0.73,0,0,0,0,5077,8968,1369,7696,51,52,0,52,0.30,1.10,0.25,0.78
2016-08-02 06:20:00,0,5806,51,0.24,0,0,0,0,2989,8131,1965,6248,51,51,0,51,0.15,0.35,0.07,0.25
2016-08-02 06:30:00,0,4217,27,0.08,0,0,0,0,2980,5320,700,4180,10,61,21,10,0.00,0.30,0.12,0.00
2016-08-02 06:40:00,0,7290,10,0.00,0,0,0,0,5530,8859,1250,7704,10,10,0,10,0.00,0.00,0.00,0.00
2016-08-02 06:50:00,0,7721,10,0.00,0,0,0,0,7229,8293,325,7746,10,10,0,10,0.00,0.00,0.00,0.00
2016-08-02 07:00:00,0,8003,10,0.00,0,0,0,0,7101,8653,446,8059,10,10,0,10,0.00,0.00,0.00,0.00
2016-08-02 07:10:00,0,8749,10,0.00,0,0,0,0,8188,9590,425,8754,10,10,0,10,0.00,0.00,0.00,0.00
2016-08-02 07:20:00,0,8966,10,0.00,0,0,0,0,8121,9397,388,9021,10,10,0,10,0.00,0.00,0.00,0.00
2016-08-02 07:30:00,0,7664,10,0.00,0,0,0,0,6679,8165,427,7739,10,10,0,10,0.00,0.00,0.00,0.00
2016-08-02 07:40:00,0,9745,10,0.00,0,0,0,0,8680,11559,842,9665,10,10,0,10,0.00,0.00,0.00,0.00
2016-08-02 07:50:00,0,10954,10,0.00,0,0,0,0,9988,11917,648,11114,10,10,0,10,0.00,0.00,0.00,0.00
2016-08-02 08:00:00,0,10148,10,0.00,0,0,0,0,9564,10576,286,10136,10,10,0,10,0.00,0.00,0.00,0.00
2016-08-02 08:10:00,0,10344,10,0.00,0,0,0,0,9197,11396,607,10348,10,10,0,10,0.00,0.00,0.00,0.00
2016-08-02 08:20:00,0,10818,10,0.00,0,0,0,0,10282,11555,383,10787,10,10,0,10,0.00,0.00,0.00,0.00
2016-08-02 08:30:00,0,9873,10,0.00,0,0,0,0,9126,10432,353,9898,10,10,0,10,0.00,0.00,0.00,0.00
2016-08-02 08:40:00,0,11155,10,0.00,0,0,0,0,10545,11659,350,11254,10,10,0,10,0.00,0.00,0.00,0.00
2016-08-02 08:50:00,0,10961,10,0.00,0,0,0,0,10440,12025,418,10782,10,10,0,10,0.00,0.00,0.00,0.00
2016-08-02 09:00:00,0,11370,10,0.00,0,0,0,0,10727,12357,485,11290,10,10,0,10,0.00,0.00,0.00,0.00
2016-08-02 09:10:00,0,12421,1,0.00,0,0,0,0,11414,13438,559,12435,0,10,3,0,0.00,0.00,0.00,0.00
2016-08-02 09:20:00,0,11896,0,0.00,0,0,0,0,11258,12416,418,11962,0,0,0,0,0.00,0.00,0.00,0.00
2016-08-02 09:30:00,0,12599,0,0.00,0,0,0,0,11279,15673,1253,12251,0,0,0,0,0.00,0.00,0.00,0.00
2016-08-02 09:40:00,0,17913,0,0.00,0,0,0,0,14913,22621,2125,17585,0,0,0,0,0.00,0.00,0.00,0.00
2016-08-02 09:50:00,0,25517,0,0.00,0,0,0,0,21294,30633,3056,24514,0,0,0,0,0.00,0.00,0.00,0.00
2016-08-02 10:00:00,0,29666,0,0.00,0,0,0,0,22507,36282,4458,28474,0,0,0,0,0.00,0.00,0.00,0.00
2016-08-02 10:10:00,0,24326,0,0.00,0,0,0,0,19185,30016,3327,24106,0,0,0,0,0.00,0.00,0.00,0.00
2016-08-02 10:20:00,0,31067,0,0.00,0,0,0,0,23157,40175,6523,29412,0,0,0,0,0.00,0.00,0.00,0.00
2016-08-02 10:30:00,0,28424,0,0.00,0,0,0,0,25669,32481,1643,28334,0,0,0,0,0.00,0.00,0.00,0.00
2016-08-02 10:40:00,0,31763,0,0.00,0,0,0,0,27896,37629,3787,29967,0,0,0,0,0.00,0.00,0.00,0.00
2016-08-02 10:50:00,0,30388,0,0.00,0,0,0,0,26129,38539,3844,30658,0,0,0,0,0.00,0.00,0.00,0.00
2016-08-02 11:00:00,0,28561,0,0.00,0,0,0,0,23875,37147,3590,28424,0,0,0,0,0.00,0.00,0.00,0.00
2016-08-02 11:10:00,0,27910,0,0.00,0,0,0,0,22805,35252,3682,27383,0,0,0,0,0.00,0.00,0.00,0.00
2016-08-02 11:20:00,0,23077,0,0.00,0,0,0,0,18780,27394,2538,22803,0,0,0,0,0.00,0.00,0.00,0.00
2016-08-02 11:30:00,0,19229,0,0.00,0,0,0,0,12646,24555,3694,19258,0,0,0,0,0.00,0.00,0.00,0.00
2016-08-02 11:40:00,0,11972,0,0.00,0,0,0,0,9570,14551,1417,11966,0,0,0,0,0.00,0.00,0.00,0.00
2016-08-02 11:50:00,0,8702,1,0.00,0,0,0,0,3291,14174,3338,9042,0,10,3,0,0.00,0.00,0.00,0.00
2016-08-02 12:00:00,0,6823,10,0.00,0,0,0,0,3089,10103,2453,6900,10,10,0,10,0.00,0.00,0.00,0.00
2016-08-02 12:10:00,0,8944,10,0.00,0,0,0,0,4572,13129,2245,8880,10,10,0,10,0.00,0.00,0.00,0.00
2016-08-02 12:20:00,0,8966,10,0.00,0,0,0,0,6269,12135,1935,8981,10,10,0,10,0.00,0.00,0.00,0.00
2016-08-02 12:30:00,0,11994,10,0.00,0,0,0,0,9317,15092,1691,12277,10,10,0,10,0.00,0.00,0.00,0.00
2016-08-02 12:40:00,0,15360,0,0.00,0,0,0,0,12960,19144,1818,15460,0,0,0,0,0.00,0.00,0.00,0.00
2016-08-02 12:50:00,0,13639,0,0.00,0,0,0,0,7682,20488,4977,12130,0,0,0,0,0.00,0.00,0.00,0.00
2016-08-02 13:00:00,0,19778,0,0.00,0,0,0,0,13457,25458,4040,19516,0,0,0,0,0.00,0.00,0.00,0.00
2016-08-02 13:10:00,0,16925,0,0.00,0,0,0,0,11086,20840,3082,17251,0,0,0,0,0.00,0.00,0.00,0.00
2016-08-02 13:20:00,0,16310,0,0.00,0,0,0,0,11438,19261,2643,17190,0,0,0,0,0.00,0.00,0.00,0.00
2016-08-02 13:30:00,0,12674,0,0.00,0,0,0,0,11580,14719,1002,12258,0,0,0,0,0.00,0.00,0.00,0.00
2016-08-02 13:40:00,0,13294,0,0.00,0,0,0,0,10493,16577,2097,13361,0,0,0,0,0.00,0.00,0.00,0.00
2016-08-02 13:50:00,0,8998,1,0.00,0,0,0,0,6566,12361,1880,8131,0,10,3,0,0.00,0.00,0.00,0.00
2016-08-02 14:00:00,0,9566,10,0.00,0,0,0,0,5564,11410,1911,10480,10,10,0,10,0.00,0.00,0.00,0.00
2016-08-02 14:10:00,0,11987,7,0.00,0,0,0,0,9423,14936,1366,11994,0,10,5,10,0.00,0.00,0.00,0.00
2016-08-02 14:20:00,0,14677,0,0.00,0,0,0,0,9686,19327,3568,15103,0,0,0,0,0.00,0.00,0.00,0.00
2016-08-02 14:30:00,0,9884,0,0.00,0,0,0,0,7960,11875,1174,10154,0,0,0,0,0.00,0.00,0.00,0.00
2016-08-02 14:40:00,0,4690,8,0.00,0,0,0,0,3127,9681,1826,4254,0,10,4,10,0.00,0.00,0.00,0.00
2016-08-02 14:50:00,0,7174,10,0.00,0,0,0,0,3395,10425,1965,7090,10,10,0,10,0.00,0.00,0.00,0.00
2016-08-02 15:00:00,0,6392,10,0.00,0,0,0,0,3635,9592,1799,6079,10,10,0,10,0.00,0.00,0.00,0.00
2016-08-02 15:10:00,0,2866,10,0.00,0,0,0,0,1492,5653,1168,2770,10,10,0,10,0.00,0.00,0.00,0.00
2016-08-02 15:20:00,0,1615,10,0.00,0,0,0,0,561,2401,554,1648,10,10,0,10,0.00,0.00,0.00,0.00
2016-08-02 15:30:00,0,479,31,0.00,0,0,0,0,345,602,82,483,10,34,7,34,0.00,0.00,0.00,0.00
2016-08-02 15:40:00,0,377,34,0.00,0,0,0,0,364,401,11,376,34,34,0,34,0.00,0.00,0.00,0.00
2016-08-02 15:50:00,0,430,34,0.00,0,0,0,0,365,474,33,442,34,34,0,34,0.00,0.00,0.00,0.00
2016-08-02 16:00:00,0,453,34,0.00,0,0,0,0,365,518,47,454,34,34,0,34,0.00,0.00,0.00,0.00
2016-08-02 16:10:00,0,417,34,0.00,0,0,0,0,357,479,38,421,34,34,0,34,0.00,0.00,0.00,0.00
2016-08-02 16:20:00,0,581,34,0.00,0,0,0,0,397,873,169,510,33,34,0,34,0.00,0.00,0.00,0.00
2016-08-02 16:30:00,0,8386,32,0.00,0,0,0,0,448,24125,9959,734,30,33,1,32,0.00,0.00,0.00,0.00
2016-08-02 16:40:00,0,10563,24,0.00,0,0,0,0,887,29512,9963,7353,20,32,5,20,0.00,0.00,0.00,0.00
2016-08-02 16:50:00,0,34163,20,0.00,0,0,0,0,26158,45141,6231,32244,20,20,0,20,0.00,0.00,0.00,0.00
2016-08-02 17:00:00,0,40674,20,0.00,0,0,0,0,2878,50000,16988,49612,20,20,0,20,0.00,0.00,0.00,0.00
2016-08-02 17:10:00,0,25681,20,0.00,0,0,0,0,4592,38688,11361,27928,20,20,0,20,0.00,0.00,0.00,0.00
2016-08-02 17:20:00,0,49422,20,0.00,0,0,0,0,45094,50000,1449,50000,20,20,0,20,0.00,0.00,0.00,0.00
2016-08-02 17:30:00,0,49090,20,0.00,0,0,0,0,44410,50000,1727,50000,20,20,0,20,0.00,0.00,0.00,0.00
2016-08-02 17:40:00,0,44072,39,2.06,0,0,0,0,14094,50000,10271,46604,0,62,23,40,0.00,16.45,4.84,0.00
2016-08-02 17:50:00,0,26631,61,7.56,0,0,0,0,12644,41968,11129,27638,61,62,0,61,0.15,32.25,10.76,1.12
2016-08-02 18:00:00,0,38184,6,0.00,0,0,0,0,32437,42879,2763,38346,0,61,18,0,0.00,0.00,0.00,0.00
2016-08-02 18:10:00,0,21219,8,0.00,0,0,0,0,1972,46081,16857,21731,0,10,4,10,0.00,0.00,0.00,0.00
2016-08-02 18:20:00,0,49843,4,0.00,0,0,0,0,48965,50000,334,50000,0,10,5,0,0.00,0.00,0.00,0.00
2016-08-02 18:30:00,0,27951,0,0.00,0,0,0,0,2474,47697,17160,33126,0,0,0,0,0.00,0.00,0.00,0.00
2016-08-02 18:40:00,0,1185,12,0.00,0,0,0,0,534,3444,843,798,10,30,6,10,0.00,0.00,0.00,0.00
2016-08-02 18:50:00,0,820,34,0.00,0,0,0,0,585,1241,187,822,34,34,0,34,0.00,0.00,0.00,0.00
2016-08-02 19:00:00,0,5291,27,0.00,0,0,0,0,784,26165,7432,2388,20,34,7,27,0.00,0.00,0.00,0.00
2016-08-02 19:10:00,0,46728,20,0.00,0,0,0,0,31026,50000,6122,50000,20,20,0,20,0.00,0.00,0.00,0.00
2016-08-02 19:20:00,0,47509,28,0.51,0,0,0,0,38084,50000,4348,50000,20,61,16,20,0.00,5.05,1.51,0.00
2016-08-02 19:30:00,0,46086,61,1.29,0,0,0,0,26845,50000,6766,48870,61,61,0,61,0.20,6.00,1.74,0.43
2016-08-02 19:40:00,0,50000,35,0.03,0,0,0,0,50000,50000,0,50000,20,51,12,41,0.00,0.20,0.06,0.00
2016-08-02 19:50:00,0,50000,20,0.00,0,0,0,0,50000,50000,0,50000,20,20,0,20,0.00,0.00,0.00,0.00
2016-08-02 20:00:00,0,50000,10,0.00,0,0,0,0,50000,50000,0,50000,0,20,10,10,0.00,0.00,0.00,0.00
2016-08-02 20:10:00,0,41067,25,3.91,0,0,0,0,21710,50000,11484,50000,0,62,30,0,0.00,16.85,5.65,0.00
2016-08-02 20:20:00,0,43188,61,3.60,0,0,0,0,36172,49563,4750,44044,61,62,0,61,0.15,10.55,3.17,2.42
2016-08-02 20:30:00,0,48022,35,0.05,0,0,0,0,43007,50000,2803,49807,0,61,28,51,0.00,0.20,0.06,0.05
2016-08-02 20:40:00,0,50000,0,0.00,0,0,0,0,50000,50000,0,50000,0,0,0,0,0.00,0.00,0.00,0.00
2016-08-02 20:50:00,0,50000,0,0.00,0,0,0,0,50000,50000,0,50000,0,0,0,0,0.00,0.00,0.00,0.00
2016-08-02 21:00:00,0,49530,0,0.00,0,0,0,0,46060,50000,1179,50000,0,0,0,0,0.00,0.00,0.00,0.00
2016-08-02 21:10:00,2,49927,0,0.00,0,2,1,2,49382,50000,185,50000,0,0,0,0,0.00,0.00,0.00,0.00
2016-08-02 21:20:00,0,49293,0,0.00,0,2,1,0,46976,50000,1104,50000,0,0,0,0,0.00,0.00,0.00,0.00
2016-08-02 21:30:00,1,49759,0,0.00,0,2,1,1,48791,50000,476,50000,0,0,0,0,0.00,0.00,0.00,0.00
2016-08-02 21:40:00,1,46334,0,0.00,0,2,1,1,39605,50000,3738,46845,0,0,0,0,0.00,0.00,0.00,0.00
2016-08-02 21:50:00,0,48937,0,0.00,0,0,0,0,43295,50000,2066,50000,0,0,0,0,0.00,0.00,0.00,0.00
2016-08-02 22:00:00,1,49655,0,0.00,0,2,1,2,48244,50000,543,50000,0,0,0,0,0.00,0.00,0.00,0.00
2016-08-02 22:10:00,0,49956,0,0.00,0,2,1,0,49716,50000,92,50000,0,0,0,0,0.00,0.00,0.00,0.00
2016-08-02 22:20:00,0,22345,49,6.00,0,0,0,0,12331,50000,12209,15358,0,62,25,61,0.00,14.85,5.09,5.83
2016-08-02 22:30:00,0,34200,52,0.87,0,0,0,0,13869,50000,12962,39483,0,61,18,61,0.00,4.00,1.31,0.22
2016-08-02 22:40:00,2,47890,0,0.00,0,2,1,2,39044,50000,3324,49722,0,0,0,0,0.00,0.00,0.00,0.00
2016-08-02 22:50:00,1,48258,0,0.00,0,2,1,1,42372,50000,2445,49200,0,0,0,0,0.00,0.00,0.00,0.00
2016-08-02 23:00:00,2,45254,0,0.00,2,2,0,2,38992,50000,4140,46784,0,0,0,0,0.00,0.00,0.00,0.00
2016-08-02 23:10:00,1,45126,0,0.00,0,2,1,0,34195,50000,4905,46831,0,0,0,0,0.00,0.00,0.00,0.00
2016-08-02 23:20:00,0,48158,0,0.00,0,2,1,0,42852,50000,2262,49132,0,0,0,0,0.00,0.00,0.00,0.00
2016-08-02 23:30:00,1,47748,0,0.00,0,2,1,0,42662,50000,2367,48295,0,0,0,0,0.00,0.00,0.00,0.00
2016-08-02 23:40:00,0,48971,0,0.00,0,2,1,0,44155,50000,1954,50000,0,0,0,0,0.00,0.00,0.00,0.00
2016-08-02 23:50:00,1,48319,0,0.00,0,2,1,1,38334,50000,3534,50000,0,0,0,0,0.00,0.00,0.00,0.00
